Weather History for Columbus, OH

Change the Weather History Date:

Sunday, April 20, 2014

  Actual Average Record
Temperature  
Mean Temperature 61 °F 55 °F  
Max Temperature 77 °F 65 °F 85 °F (1896)
Min Temperature 45 °F 44 °F 22 °F (1904)
Degree Days  
Heating Degree Days 4 11  
Month to date heating degree days 223 279  
Since 1 July heating degree days 5444 4990  
Cooling Degree Days 0 1  
Month to date cooling degree days 6 2  
Year to date cooling degree days 6 2  
Growing Degree Days 11 (Base 50)    
Moisture  
Dew Point 34 °F    
Average Humidity 40    
Maximum Humidity 58    
Minimum Humidity 21    
Precipitation  
Precipitation 0.00 in 0.11 in 1.51 in (1964)
Month to date precipitation 2.68 2.26  
Year to date precipitation 10.06 10.26  
Snow  
Snow 0.00 in 0.00 in 2.40 in (1910)
Month to date snowfall 0.9 1.0  
Since 1 July snowfall 56.4 26.6  
Snow Depth 0.00 in    
Sea Level Pressure  
Sea Level Pressure 30.22 in    
Wind  
Wind Speed 4 mph (East)    
Max Wind Speed 13 mph    
Max Gust Speed 17 mph    
Visibility 10 miles    
Events      
T = Trace of Precipitation, MM = Missing Value Source: NWS Daily Summary

Daily Weather History Graph

Daily Weather History Graph

Search for Another Location

Airport:

Trip Planner

Search our weather history database for the weather conditions in past years. The results will help you decide how hot, cold, wet, or windy it might be!

Date:

Astronomy

Apr. 20, 2014 Rise Set
Actual Time 6:46 AM EDT 8:15 PM EDT
Civil Twilight 6:18 AM EDT 8:43 PM EDT
Nautical Twilight 5:43 AM EDT 9:17 PM EDT
Astronomical Twilight 5:07 AM EDT 9:54 PM EDT
Moon 12:53 AM EDT (4/20) 11:05 AM EDT (4/20)
Length of Visible Light 14h 25m
Length of Day
13h 28m
Waning Gibbous, 69% of the Moon is Illuminated
Apr 20
Waning Gibbous
Apr 22
Last Quarter
Apr 29
New
May 6
First Quarter
May 14
Full

Hourly Weather History & Observations

Time (EDT) Temp. Windchill Dew Point Humidity Pressure Visibility Wind Dir Wind Speed Gust Speed Precip Events Conditions
12:51 AM 50.0 °F - 30.9 °F 48% 30.28 in 10.0 mi NE 3.5 mph - N/A   Partly Cloudy
1:51 AM 48.0 °F - 30.9 °F 52% 30.28 in 10.0 mi NNE 5.8 mph - N/A   Partly Cloudy
2:51 AM 48.0 °F - 30.0 °F 50% 30.26 in 10.0 mi NE 3.5 mph - N/A   Partly Cloudy
3:51 AM 46.9 °F - 30.0 °F 52% 30.26 in 10.0 mi NE 5.8 mph - N/A   Partly Cloudy
4:51 AM 46.9 °F - 28.9 °F 50% 30.27 in 10.0 mi NNE 3.5 mph - N/A   Partly Cloudy
5:51 AM 46.0 °F - 28.9 °F 51% 30.28 in 10.0 mi Calm Calm - N/A   Partly Cloudy
6:51 AM 45.0 °F 43.5 °F 30.0 °F 56% 30.29 in 10.0 mi North 3.5 mph - N/A   Scattered Clouds
7:51 AM 48.9 °F - 32.0 °F 52% 30.28 in 10.0 mi ESE 4.6 mph - N/A   Mostly Cloudy
8:51 AM 53.1 °F - 30.0 °F 41% 30.30 in 10.0 mi ESE 5.8 mph - N/A   Mostly Cloudy
9:51 AM 59.0 °F - 32.0 °F 36% 30.28 in 10.0 mi ESE 8.1 mph - N/A   Mostly Cloudy
10:51 AM 63.0 °F - 35.1 °F 35% 30.28 in 10.0 mi SE 8.1 mph - N/A   Mostly Cloudy
11:51 AM 66.9 °F - 36.0 °F 32% 30.27 in 10.0 mi Variable 6.9 mph - N/A   Mostly Cloudy
12:51 PM 71.1 °F - 37.9 °F 30% 30.24 in 10.0 mi SSE 8.1 mph - N/A   Mostly Cloudy
1:51 PM 72.0 °F - 37.9 °F 29% 30.23 in 10.0 mi South 4.6 mph - N/A   Mostly Cloudy
2:51 PM 73.4 °F - 37.4 °F 27% 30.21 in 10.0 mi Variable 4.6 mph - N/A   Mostly Cloudy
3:51 PM 75.9 °F - 37.0 °F 24% 30.18 in 10.0 mi ESE 5.8 mph - N/A   Mostly Cloudy
4:51 PM 75.2 °F - 35.6 °F 24% 30.17 in 10.0 mi SSW 6.9 mph - N/A   Mostly Cloudy
5:51 PM 75.9 °F - 34.0 °F 22% 30.15 in 10.0 mi SSE 5.8 mph - N/A   Mostly Cloudy
6:51 PM 75.9 °F - 33.1 °F 21% 30.13 in 10.0 mi Variable 4.6 mph - N/A   Mostly Cloudy
7:51 PM 73.9 °F - 35.1 °F 24% 30.12 in 10.0 mi Calm Calm - N/A   Mostly Cloudy
8:51 PM 69.1 °F - 37.0 °F 31% 30.13 in 10.0 mi Calm Calm - N/A   Mostly Cloudy
9:51 PM 64.9 °F - 39.0 °F 39% 30.13 in 10.0 mi Calm Calm - N/A   Mostly Cloudy
10:51 PM 60.8 °F - 42.8 °F 52% 30.12 in 10.0 mi Calm Calm - N/A   Partly Cloudy
11:51 PM 60.1 °F - 41.0 °F 49% 30.10 in 10.0 mi Calm Calm - N/A   Partly Cloudy